Regional Weather Roundup
Issued by NWS Wakefield, VA

Home | Current Version | Previous Version | Graphics & Text | Print | Product List | Glossary On
Versions: 1 2 3 4 5 6 7 8 9 10 11 12 13 14 15 16 17 18 19 20 21 22 23 24 25 26 27 28 29 30 31 32 33 34 35 36 37 38 39 40 41 42 43 44 45 46 47 48 49 50
000
ASUS41 KAKQ 271914
RWRAKQ

REGIONAL WEATHER ROUNDUP
NATIONAL WEATHER SERVICE WAKEFIELD VA
300 PM EDT MON APR 27 2015

Note: "fair" indicates few or no clouds below 12,000 feet with no
significant weather and/or obstructions to visibility. * = Denotes
station may not report precipitation (e.g., rain,snow,etc.),
thunder or fog.

VAZ042-051-052>054-056-272000-
NORTHERN VIRGINIA

CITY           SKY/WX    TMP DP  RH WIND       PRES   REMARKS
WASH NATIONAL  PTSUNNY   60  35  39 NW15G22   29.79F
DULLES         PTSUNNY   58  34  40 NW18G24   29.80F
FORT BELVOIR   PTSUNNY   58  34  40 NW17G23   29.79F
QUANTICO       NOT AVBL
FREDERICKSBRG* CLOUDY    59  35  40 N8G17     29.79F
STAFFORD*      CLOUDY    58  33  39 NW9G16    29.84S
WARRENTON      CLOUDY    58  37  43 NW13G20   29.81S
CULPEPER*      MOSUNNY   61  34  36 W13G20    29.82S
MANASSAS*      CLOUDY    57  34  41 NW16G23   29.81S
LEESBURG*      CLOUDY    55  36  47 NW8       29.81S
WINCHESTER     CLOUDY    54  27  35 NW14G22   29.82R
FRONT ROYAL*   CLOUDY    55  34  44 N6        29.81F
LURAY*         CLOUDY    55  34  44 NW10G17   29.84S
$$

VAZ048-049-060>072-079>083-272000-
CENTRAL AND SOUTH CENTRAL VIRGINIA

CITY           SKY/WX    TMP DP  RH WIND       PRES   REMARKS
RICHMOND       PTSUNNY   63  34  33 N12       29.77F
CHESTERFIELD*  CLOUDY    64  32  29 NW17      29.78F
PETERSBURG*    PTSUNNY   65  32  29 N8G17     29.77F
HANOVER        CLOUDY    61  34  36 W12       29.79F
TAPPAHANNOCK*  PTSUNNY   60  28  29 NW9G16    29.79S
QUINTON*       MOCLDY    61  34  36 N10G23    29.77F
CHARLOTTSVILLE CLOUDY    58  32  37 N12G20    29.81R
GORDONSVILLE*  CLOUDY    57  33  40 N10G16    29.80S
ORANGE*        PTSUNNY   59  32  36 W14G21    29.83S
LOUISA*        CLOUDY    61  34  36 N9G16     29.78F
BUMPASS*       CLOUDY    59  34  39 N7G17     29.79S
FARMVILLE*     CLOUDY    64  35  34 W6        29.77F
CREWE*         CLOUDY    64  35  33 NW8       29.77F
FORT PICKETT*  CLOUDY    64  36  36 NW7G18    29.77F
CHASE CITY*    MOCLDY    64  39  39 NW9       29.78S
CLARKSVILLE*   FAIR      64  36  34 W10G20    29.77F
SOUTH HILL*    MOSUNNY   64  38  37 NW7       29.82F
LAWRENCEVILLE* FAIR      64  36  36 NW8       29.75F
EMPORIA*       SUNNY     64  34  32 NW13G21   29.77F
$$

VAZ088>098-272000-
SOUTHEAST VIRGINIA

CITY           SKY/WX    TMP DP  RH WIND       PRES   REMARKS
NORFOLK        SUNNY     61  36  39 NE9       29.76F
VIRGINIA BEACH MOSUNNY   64  41  42 N8        29.75F
NORFOLK NAVAL  MOSUNNY   64  39  39 NE8       29.77F
WEST POINT*    PTSUNNY   64  28  25 W9        29.78S
SALUDA*        FAIR      60  35  39 NW12      29.76F
NEWPORT NEWS   CLOUDY    63  40  42 E7        29.76F
LANGLEY AFB    PTSUNNY   59  41  51 NE10      29.75F
FORT EUSTIS    PTSUNNY   63  38  39 NW10      29.74F
WILLIAMSBURG*  MOSUNNY   66  39  37 N13       29.76F
HR EXEC AP*    MOCLDY    64  39  39 N5        29.76F
FRANKLIN*      MOSUNNY   65  36  33 NW9       29.75F
WAKEFIELD      MOSUNNY   64  35  34 VRB7      29.75F
$$

VAZ020-022-025-037-045-272000-
WEST CENTRAL AND SOUTHWEST VIRGINIA

CITY           SKY/WX    TMP DP  RH WIND       PRES   REMARKS
STAUNTON*      MOSUNNY   57  30  36 NW15      29.85F
WAYNESBORO*    FAIR      55  31  39 N18G25    29.82S
HOT SPRINGS VA CLOUDY    46  27  48 NW14G26   29.82S
LYNCHBURG      PTSUNNY   60  33  36 VRB6      29.80F
DANVILLE       MOSUNNY   64  34  32 NW13G20   29.80F
SOUTH BOSTON*  MOCLDY    63  33  33 NW10G22   29.79S
MARTINSVILLE   MOSUNNY   63  32  31 N13G23    29.85S
ROANOKE        PTSUNNY   57  31  37 W12G21    29.85F
BLACKSBURG     CLOUDY    51  30  44 NW16G23   29.89S
DUBLIN*        CLOUDY    54  31  42 N9G20     29.89R
MARION*        PTSUNNY   54  29  38 NW16G25   29.90F
HILLSVILLE*    CLOUDY    51  32  47 NW17G24   29.86S
RICHLANDS*     CLOUDY    51  -9   8 NW8G20    29.90F
WISE*          PTSUNNY   54  28  37 W8G16     29.94R
ABINGDON*      PTSUNNY   56  30  37 N7        29.91S
$$

MDZ021>025-VAZ099-100-272000-
SOUTHERN MARYLAND AND THE DELMARVA PENINSULA

CITY           SKY/WX    TMP DP  RH WIND       PRES   REMARKS
PATUXENT RIVER PTSUNNY   60  37  42 NW15      29.76F
BAY BRIDGE APT   N/A    N/A N/A N/A NW9       29.76F
LEONARDTOWN    CLOUDY    59  32  36 NW8       29.78F
DOVER          PTSUNNY   61  35  37 W15G24    29.69F
GEORGETOWN     CLOUDY    58  31  35 W8G18     29.73F
EASTON         PTSUNNY   63  37  39 NW16G23   29.79F
CAMBRIDGE      MOSUNNY   61  32  33 NW15G23   29.75F
SALISBURY      CLOUDY    60  33  36 NW12G22   29.74F
OCEAN CITY     CLOUDY    58  32  37 NW14G21   29.74F
WALLOPS ISLAND CLOUDY    59  32  36 NW15G23   29.74F
ACCOMACK*      SUNNY    N/A N/A N/A NW14G20   29.76F
$$

NCZ012>017-030>032-272000-
NORTH CENTRAL AND EASTERN NORTH CAROLINA

CITY           SKY/WX    TMP DP  RH WIND       PRES   REMARKS
ROANOKE RAPIDS FAIR      64  36  34 NW8G20    29.75F
RALEIGH        MOSUNNY   66  39  37 VRB6      29.79F
ELIZABETH CITY MOSUNNY   68  39  34 W10       29.73F
AHOSKIE*       MOSUNNY   65  36  34 N7        29.74F
EDENTON*       MOSUNNY   67  38  34 NW8G18    29.74F
CURRITUCK*     MOSUNNY   62  41  46 NE12G21   29.75F
KILL DEVIL HLS SUNNY     58  49  71 NE7G17    29.74F
MANTEO         SUNNY     65  38  37 N16G22    29.74F
CAPE HATTERAS  SUNNY     63  42  46 W8        29.73F
TARBORO*       FAIR      69  36  30 W9G18     29.76F
GOLDSBORO      SUNNY     69  37  31 W14G20    29.74F
WASHINGTON     PTSUNNY   67  40  36 NW7       29.74F
GREENVILLE     MOSUNNY   68  37  32 W3        29.77F
NEW BERN       SUNNY     70  40  33 N12       29.75F
WILMINGTON     SUNNY     71  40  32 W14       29.77F
$$

VAZ048-272000-
ELSEWHERE

CITY           SKY/WX    TMP DP  RH WIND       PRES   REMARKS
HARRISBURG PA  PTSUNNY   56  32  40 NW14      29.75F
BALTIMORE      PTSUNNY   58  35  42 NW12G22   29.76F
ANNAPOLIS      CLOUDY    57  35  43 NW13      29.76F
ANDREWS AFB    PTSUNNY   57  35  43 NW14      29.77F
PHILADELPHIA   CLOUDY    59  30  33 NW13G21   29.73S
HENDERSON NC   MOSUNNY   63  32  31 NW10      29.78S
GREENSBORO     MOSUNNY   66  31  27 NW16G22   29.80S
ROCKY MOUNT    MOSUNNY   69  36  29 NW17G23   29.77F
$$

VAZ100-272000-
MARINE

STATION/POSITION TIME  TEMP    WIND        PRES    WAVE   SWELL
                       AIR SEA DIR/SP/G            HT/PER HT/PER
                 (UTC) (F)     (DEG/KT/KT) (MB)    (FT/S) (FT/S)
BRANDYWINE LGT   1800   54 53  340/  7/  8 1007.2F
CAPE MAY NJ      1800   58 56  320/  7/ 12 1006.6F
LEWES DE         1800   54 53  350/  7/  8 1007.1F
15NM E FENWICK I 1850   51 49              1006.5F   2/ 8
OCEAN-CITY-INLET 1800   57 52  320/ 11/ 15 1006.9F
WACHAPREAGUE VA  1800   61 57  300/  5/ 10 1008.0F
THOMAS POINT MD  1900   56 54  300/ 13/ 14 1008.4F
GOOSES REEF MD   1900   56 54  320/ 10/ 14   N/A     1/ 2
COVE POINT MD    1800   53      40/  7/  8 1009.0F
SOLOMONS ISLAND  1800      56                N/A
BISHOPS HEAD MD  1800   58 59  310/ 11/ 14 1007.7F
PINEY POINT MD   1800          330/ 15/ 17   N/A
CAMBRIDGE MD     1800   56 58  310/ 10/ 12 1008.0F
LEWISETTA VA     1800   58 58              1007.8F
RAPPAHANNOCK LGT 1800           10/  9/  9 1008.7F
YORK RVR RNG VA  1800   56      80/ 11/ 12 1007.5F
YORKTOWN VA      1800   58 59   80/  4/  9 1007.8F
JAMESTOWN VA     1900   61 63  300/ 10/ 16 1006.7F
DOMINION TERM VA 1800   58     100/  3/  9 1008.3F
KIPTOPEKE VA     1800      62  320/  8/ 11   N/A
CHES BAY BRIDGE  1800   55 59   20/ 10/ 12 1007.8F
CAPE HENRY VA    1800   55      50/  6/  7 1007.0F
CHESAPEAKE LGHT  1800   51      40/ 10/ 11 1009.0S
WILLOUBY STN VA  1800   55      50/ 10/ 11 1009.0F
S CRANEY ISL VA  1800           20/  4/  5 1008.2F
CAPE HENRY BUOY  1828      52                N/A     3/ 8
OFFSHORE WE BUOY 1811      51                N/A     3/ 8   3/ 8
64NM E OF VA BCH 1850   53 56  360/ 10/ 12 1007.1F   3/ 8   2/ 8
DUCK PIER NC     1800   54 55   20/ 17/ 19 1006.8R
44056 DUCK FRF   1811      55                N/A     3/ 8
OREGON INLET NC  1800   64 56  290/  9/ 13 1007.7F
HATTERAS NC      1800   64 61  250/  9/ 12 1007.8F
DIAMOND SHLS NC  1850   62 75  320/ 10/ 12 1007.4F   4/10   5/10
CAPE LOOKOUT NC  1900   62     160/  7/  8 1006.9F
$$


USA.gov is the U.S. government's official web portal to all federal, state and local government web resources and services.